Time,TemperatureF,DewpointF,PressureIn,WindDirection,WindDirectionDegrees,WindSpeedMPH,WindSpeedGustMPH,Humidity,HourlyPrecipIn,Conditions,Clouds,dailyrainin,SoftwareType,DateUTC
2013-07-26 00:02:00,56.0,52.0,-100.00,WNW,290,1.0,2.0,87,0.00,,,-99.99,,2013-07-26 05:02:00,
2013-07-26 00:12:00,56.0,52.0,-100.00,WNW,290,1.0,2.0,87,0.00,,,-99.99,,2013-07-26 05:12:00,
2013-07-26 00:43:00,56.0,52.0,-100.00,WNW,290,1.0,2.0,87,0.00,,,-99.99,,2013-07-26 05:43:00,
2013-07-26 00:52:00,56.0,52.0,-100.00,WNW,290,1.0,2.0,87,0.00,,,-99.99,,2013-07-26 05:52:00,
2013-07-26 01:02:00,56.0,52.0,-100.00,WNW,290,1.0,2.0,87,0.00,,,-99.99,,2013-07-26 06:02:00,
2013-07-26 01:12:00,56.0,52.0,-100.00,WNW,290,1.0,2.0,87,0.00,,,-99.99,,2013-07-26 06:12:00,
2013-07-26 01:33:00,57.0,53.0,-100.00,WSW,255,3.0,6.0,87,0.00,,,-99.99,,2013-07-26 06:33:00,
2013-07-26 01:43:00,57.0,53.0,-100.00,WSW,255,3.0,6.0,87,0.00,,,-99.99,,2013-07-26 06:43:00,
2013-07-26 01:52:00,57.0,53.0,-100.00,WSW,255,3.0,6.0,87,0.00,,,-99.99,,2013-07-26 06:52:00,
2013-07-26 02:02:00,57.0,53.0,-100.00,WSW,255,3.0,6.0,87,0.00,,,-99.99,,2013-07-26 07:02:00,
2013-07-26 02:11:00,56.0,53.0,-100.00,WNW,300,4.0,9.0,87,0.00,,,-99.99,,2013-07-26 07:11:00,
2013-07-26 02:32:00,56.0,53.0,-100.00,WNW,300,4.0,9.0,87,0.00,,,-99.99,,2013-07-26 07:32:00,
2013-07-26 02:43:00,56.0,53.0,-100.00,WNW,300,4.0,9.0,87,0.00,,,-99.99,,2013-07-26 07:43:00,
2013-07-26 02:53:00,56.0,53.0,-100.00,WNW,300,4.0,9.0,87,0.00,,,-99.99,,2013-07-26 07:53:00,
2013-07-26 03:02:00,56.0,53.0,-100.00,WNW,300,4.0,9.0,87,0.00,,,-99.99,,2013-07-26 08:02:00,
2013-07-26 03:12:00,56.0,53.0,-100.00,WNW,285,2.0,5.0,87,0.00,,,-99.99,,2013-07-26 08:12:00,
2013-07-26 03:32:00,56.0,53.0,-100.00,WNW,285,2.0,5.0,87,0.00,,,-99.99,,2013-07-26 08:32:00,
2013-07-26 03:44:00,56.0,53.0,-100.00,WNW,285,2.0,5.0,87,0.00,,,-99.99,,2013-07-26 08:44:00,
2013-07-26 03:52:00,56.0,53.0,-100.00,WNW,285,2.0,5.0,87,0.00,,,-99.99,,2013-07-26 08:52:00,
2013-07-26 04:02:00,56.0,53.0,-100.00,WNW,285,2.0,5.0,87,0.00,,,-99.99,,2013-07-26 09:02:00,
2013-07-26 04:32:00,56.0,52.0,-100.00,West,260,0.0,2.0,87,0.00,,,-99.99,,2013-07-26 09:32:00,
2013-07-26 04:43:00,56.0,52.0,-100.00,West,260,0.0,2.0,87,0.00,,,-99.99,,2013-07-26 09:43:00,
2013-07-26 04:52:00,56.0,52.0,-100.00,West,260,0.0,2.0,87,0.00,,,-99.99,,2013-07-26 09:52:00,
2013-07-26 05:02:00,56.0,52.0,-100.00,West,260,0.0,2.0,87,0.00,,,-99.99,,2013-07-26 10:02:00,
2013-07-26 05:12:00,56.0,52.0,-100.00,West,260,0.0,2.0,87,0.00,,,-99.99,,2013-07-26 10:12:00,
2013-07-26 05:33:00,56.0,52.0,-100.00,West,265,2.0,3.0,87,0.00,,,-99.99,,2013-07-26 10:33:00,
2013-07-26 05:43:00,56.0,52.0,-100.00,West,265,2.0,3.0,87,0.00,,,-99.99,,2013-07-26 10:43:00,
2013-07-26 05:53:00,56.0,52.0,-100.00,West,265,2.0,3.0,87,0.00,,,-99.99,,2013-07-26 10:53:00,
2013-07-26 06:02:00,56.0,52.0,-100.00,West,265,2.0,3.0,87,0.00,,,-99.99,,2013-07-26 11:02:00,
2013-07-26 06:12:00,56.0,52.0,-100.00,West,265,2.0,3.0,87,0.00,,,-99.99,,2013-07-26 11:12:00,
2013-07-26 06:32:00,56.0,52.0,-100.00,NW,320,2.0,6.0,87,0.00,,,-99.99,,2013-07-26 11:32:00,
2013-07-26 06:43:00,56.0,52.0,-100.00,NW,320,2.0,6.0,87,0.00,,,-99.99,,2013-07-26 11:43:00,
2013-07-26 06:52:00,56.0,52.0,-100.00,NW,320,2.0,6.0,87,0.00,,,-99.99,,2013-07-26 11:52:00,
2013-07-26 07:02:00,56.0,52.0,-100.00,NW,320,2.0,6.0,87,0.00,,,-99.99,,2013-07-26 12:02:00,
2013-07-26 07:12:00,56.0,52.0,-100.00,NW,320,2.0,6.0,87,0.00,,,-99.99,,2013-07-26 12:12:00,
2013-07-26 07:33:00,55.0,51.0,-100.00,WNW,300,2.0,6.0,87,0.00,,,-99.99,,2013-07-26 12:33:00,
2013-07-26 07:43:00,55.0,51.0,-100.00,WNW,300,2.0,6.0,87,0.00,,,-99.99,,2013-07-26 12:43:00,
2013-07-26 07:53:00,55.0,51.0,-100.00,WNW,300,2.0,6.0,87,0.00,,,-99.99,,2013-07-26 12:53:00,
2013-07-26 08:02:00,55.0,51.0,-100.00,WNW,300,2.0,6.0,87,0.00,,,-99.99,,2013-07-26 13:02:00,
2013-07-26 08:12:00,55.0,51.0,-100.00,WNW,300,2.0,6.0,87,0.00,,,-99.99,,2013-07-26 13:12:00,
2013-07-26 08:32:00,56.0,52.0,-100.00,North,0,1.0,2.0,87,0.00,,,-99.99,,2013-07-26 13:32:00,
2013-07-26 08:43:00,56.0,52.0,-100.00,North,0,1.0,2.0,87,0.00,,,-99.99,,2013-07-26 13:43:00,
2013-07-26 08:53:00,56.0,52.0,-100.00,North,0,1.0,2.0,87,0.00,,,-99.99,,2013-07-26 13:53:00,
2013-07-26 09:02:00,56.0,52.0,-100.00,North,0,1.0,2.0,87,0.00,,,-99.99,,2013-07-26 14:02:00,
2013-07-26 09:12:00,56.0,52.0,-100.00,North,0,1.0,2.0,87,0.00,,,-99.99,,2013-07-26 14:12:00,
2013-07-26 09:33:00,57.0,53.0,-100.00,East,95,0.0,2.0,87,0.00,,,-99.99,,2013-07-26 14:33:00,
2013-07-26 09:43:00,57.0,53.0,-100.00,East,95,0.0,2.0,87,0.00,,,-99.99,,2013-07-26 14:43:00,
2013-07-26 09:53:00,57.0,53.0,-100.00,East,95,0.0,2.0,87,0.00,,,-99.99,,2013-07-26 14:53:00,
2013-07-26 10:02:00,57.0,53.0,-100.00,East,95,0.0,2.0,87,0.00,,,-99.99,,2013-07-26 15:02:00,
2013-07-26 10:11:00,58.0,53.0,-100.00,SW,230,1.0,3.0,83,0.00,,,-99.99,,2013-07-26 15:11:00,
2013-07-26 10:12:00,57.0,53.0,-100.00,East,95,0.0,2.0,87,0.00,,,-99.99,,2013-07-26 15:12:00,
2013-07-26 10:33:00,58.0,53.0,-100.00,SW,230,1.0,3.0,83,0.00,,,-99.99,,2013-07-26 15:33:00,
2013-07-26 10:43:00,58.0,53.0,-100.00,SW,230,1.0,3.0,83,0.00,,,-99.99,,2013-07-26 15:43:00,
2013-07-26 10:53:00,58.0,53.0,-100.00,SW,230,1.0,3.0,83,0.00,,,-99.99,,2013-07-26 15:53:00,
2013-07-26 11:02:00,58.0,53.0,-100.00,SW,230,1.0,3.0,83,0.00,,,-99.99,,2013-07-26 16:02:00,
2013-07-26 11:32:00,60.0,53.0,-100.00,SSW,195,1.0,2.0,77,0.00,,,-99.99,,2013-07-26 16:32:00,
2013-07-26 11:43:00,60.0,53.0,-100.00,SSW,195,1.0,2.0,77,0.00,,,-99.99,,2013-07-26 16:43:00,
2013-07-26 11:54:00,60.0,53.0,-100.00,SSW,195,1.0,2.0,77,0.00,,,-99.99,,2013-07-26 16:54:00,
2013-07-26 12:02:00,60.0,53.0,-100.00,SSW,195,1.0,2.0,77,0.00,,,-99.99,,2013-07-26 17:02:00,
2013-07-26 12:12:00,60.0,53.0,-100.00,SSW,195,1.0,2.0,77,0.00,,,-99.99,,2013-07-26 17:12:00,
2013-07-26 12:33:00,58.0,51.0,-100.00,NNW,330,3.0,8.0,78,0.00,,,-99.99,,2013-07-26 17:33:00,
2013-07-26 12:43:00,58.0,51.0,-100.00,NNW,330,3.0,8.0,78,0.00,,,-99.99,,2013-07-26 17:43:00,
2013-07-26 12:53:00,58.0,51.0,-100.00,NNW,330,3.0,8.0,78,0.00,,,-99.99,,2013-07-26 17:53:00,
2013-07-26 13:03:00,58.0,51.0,-100.00,NNW,330,3.0,8.0,78,0.00,,,-99.99,,2013-07-26 18:03:00,
2013-07-26 13:12:00,58.0,51.0,-100.00,NNW,330,3.0,8.0,78,0.00,,,-99.99,,2013-07-26 18:12:00,
2013-07-26 13:33:00,54.0,50.0,-100.00,East,85,5.0,14.0,84,0.00,,,-99.99,,2013-07-26 18:33:00,
2013-07-26 13:44:00,54.0,50.0,-100.00,East,85,5.0,14.0,84,0.00,,,-99.99,,2013-07-26 18:44:00,
2013-07-26 13:52:00,54.0,50.0,-100.00,East,85,5.0,14.0,84,0.00,,,-99.99,,2013-07-26 18:52:00,
2013-07-26 14:03:00,54.0,50.0,-100.00,East,85,5.0,14.0,84,0.00,,,-99.99,,2013-07-26 19:03:00,
2013-07-26 14:12:00,54.0,50.0,-100.00,East,85,5.0,14.0,84,0.00,,,-99.99,,2013-07-26 19:12:00,
2013-07-26 14:32:00,55.0,49.0,-100.00,East,85,2.0,10.0,82,0.00,,,-99.99,,2013-07-26 19:32:00,
2013-07-26 14:43:00,55.0,49.0,-100.00,East,85,2.0,10.0,82,0.00,,,-99.99,,2013-07-26 19:43:00,
2013-07-26 14:52:00,55.0,49.0,-100.00,East,85,2.0,10.0,82,0.00,,,-99.99,,2013-07-26 19:52:00,
2013-07-26 15:02:00,55.0,49.0,-100.00,East,85,2.0,10.0,82,0.00,,,-99.99,,2013-07-26 20:02:00,
2013-07-26 15:12:00,55.0,49.0,-100.00,East,85,2.0,10.0,82,0.00,,,-99.99,,2013-07-26 20:12:00,
2013-07-26 15:32:00,54.0,49.0,-100.00,East,95,3.0,7.0,83,0.00,,,-99.99,,2013-07-26 20:32:00,
2013-07-26 15:43:00,54.0,49.0,-100.00,East,95,3.0,7.0,83,0.00,,,-99.99,,2013-07-26 20:43:00,
2013-07-26 15:53:00,54.0,49.0,-100.00,East,95,3.0,7.0,83,0.00,,,-99.99,,2013-07-26 20:53:00,
2013-07-26 16:02:00,54.0,49.0,-100.00,East,95,3.0,7.0,83,0.00,,,-99.99,,2013-07-26 21:02:00,
2013-07-26 16:12:00,54.0,49.0,-100.00,East,95,3.0,7.0,83,0.00,,,-99.99,,2013-07-26 21:12:00,
2013-07-26 16:32:00,54.0,49.0,-100.00,East,95,4.0,7.0,85,0.03,,,-99.99,,2013-07-26 21:32:00,
2013-07-26 16:43:00,54.0,49.0,-100.00,East,95,4.0,7.0,85,0.03,,,-99.99,,2013-07-26 21:43:00,
2013-07-26 16:53:00,54.0,49.0,-100.00,East,95,4.0,7.0,85,0.03,,,-99.99,,2013-07-26 21:53:00,
2013-07-26 17:02:00,54.0,49.0,-100.00,East,95,4.0,7.0,85,0.03,,,-99.99,,2013-07-26 22:02:00,
2013-07-26 17:12:00,54.0,49.0,-100.00,East,95,4.0,7.0,85,0.03,,,-99.99,,2013-07-26 22:12:00,
2013-07-26 17:33:00,53.0,48.0,-100.00,North,0,3.0,9.0,85,0.00,,,-99.99,,2013-07-26 22:33:00,
2013-07-26 17:43:00,53.0,48.0,-100.00,North,0,3.0,9.0,85,0.00,,,-99.99,,2013-07-26 22:43:00,
2013-07-26 17:53:00,53.0,48.0,-100.00,North,0,3.0,9.0,85,0.00,,,-99.99,,2013-07-26 22:53:00,
2013-07-26 18:02:00,53.0,48.0,-100.00,North,0,3.0,9.0,85,0.00,,,-99.99,,2013-07-26 23:02:00,
2013-07-26 18:12:00,53.0,48.0,-100.00,North,0,3.0,9.0,85,0.00,,,-99.99,,2013-07-26 23:12:00,
2013-07-26 18:32:00,51.0,46.0,-100.00,North,350,1.0,13.0,81,0.00,,,-99.99,,2013-07-26 23:32:00,
2013-07-26 18:43:00,51.0,46.0,-100.00,North,350,1.0,13.0,81,0.00,,,-99.99,,2013-07-26 23:43:00,
2013-07-26 18:53:00,51.0,46.0,-100.00,North,350,1.0,13.0,81,0.00,,,-99.99,,2013-07-26 23:53:00,
2013-07-26 19:02:00,51.0,46.0,-100.00,North,350,1.0,13.0,81,0.00,,,-99.99,,2013-07-27 00:02:00,
2013-07-26 19:12:00,51.0,46.0,-100.00,North,350,1.0,13.0,81,0.00,,,-99.99,,2013-07-27 00:12:00,
2013-07-26 19:32:00,50.0,45.0,-100.00,NNE,25,1.0,6.0,83,0.00,,,-99.99,,2013-07-27 00:32:00,
2013-07-26 19:43:00,50.0,45.0,-100.00,NNE,25,1.0,6.0,83,0.00,,,-99.99,,2013-07-27 00:43:00,
2013-07-26 19:53:00,50.0,45.0,-100.00,NNE,25,1.0,6.0,83,0.00,,,-99.99,,2013-07-27 00:53:00,
2013-07-26 20:02:00,50.0,45.0,-100.00,NNE,25,1.0,6.0,83,0.00,,,-99.99,,2013-07-27 01:02:00,
2013-07-26 20:12:00,50.0,45.0,-100.00,NNE,25,1.0,6.0,83,0.00,,,-99.99,,2013-07-27 01:12:00,
2013-07-26 20:32:00,49.0,43.0,-100.00,NW,325,2.0,8.0,81,0.00,,,-99.99,,2013-07-27 01:32:00,
2013-07-26 20:44:00,49.0,43.0,-100.00,NW,325,2.0,8.0,81,0.00,,,-99.99,,2013-07-27 01:44:00,
2013-07-26 20:53:00,49.0,43.0,-100.00,NW,325,2.0,8.0,81,0.00,,,-99.99,,2013-07-27 01:53:00,
2013-07-26 21:02:00,49.0,43.0,-100.00,NW,325,2.0,8.0,81,0.00,,,-99.99,,2013-07-27 02:02:00,
2013-07-26 21:12:00,49.0,43.0,-100.00,NW,325,2.0,8.0,81,0.00,,,-99.99,,2013-07-27 02:12:00,
2013-07-26 21:32:00,47.0,42.0,-100.00,NNW,335,1.0,7.0,82,0.00,,,-99.99,,2013-07-27 02:32:00,
2013-07-26 21:43:00,47.0,42.0,-100.00,NNW,335,1.0,7.0,82,0.00,,,-99.99,,2013-07-27 02:43:00,
2013-07-26 21:53:00,47.0,42.0,-100.00,NNW,335,1.0,7.0,82,0.00,,,-99.99,,2013-07-27 02:53:00,
2013-07-26 22:03:00,47.0,42.0,-100.00,NNW,335,1.0,7.0,82,0.00,,,-99.99,,2013-07-27 03:03:00,
2013-07-26 22:12:00,46.0,41.0,-100.00,WNW,285,2.0,4.0,82,0.00,,,-99.99,,2013-07-27 03:12:00,
2013-07-26 22:33:00,46.0,41.0,-100.00,WNW,285,2.0,4.0,82,0.00,,,-99.99,,2013-07-27 03:33:00,
2013-07-26 22:44:00,46.0,41.0,-100.00,WNW,285,2.0,4.0,82,0.00,,,-99.99,,2013-07-27 03:44:00,
2013-07-26 22:52:00,46.0,41.0,-100.00,WNW,285,2.0,4.0,82,0.00,,,-99.99,,2013-07-27 03:52:00,
2013-07-26 23:02:00,46.0,41.0,-100.00,WNW,285,2.0,4.0,82,0.00,,,-99.99,,2013-07-27 04:02:00,
2013-07-26 23:43:00,46.0,41.0,-100.00,WNW,285,1.0,3.0,82,0.00,,,-99.99,,2013-07-27 04:43:00,
2013-07-26 23:53:00,46.0,41.0,-100.00,WNW,285,1.0,3.0,82,0.00,,,-99.99,,2013-07-27 04:53:00,